This is the latest recevied weather packets stored in our database for station/object HP1CDW-11. If no packets are shown the sender has not sent any weather packets the latest 10 day(s).
| Time | Temp. | Humidity | Pressure | Rain* | Wind** | Luminosity | Snow |
|---|---|---|---|---|---|---|---|
| 1777572515 | 31.11° C | 46% | 1006.5 hPa | - | - | - | - |
| 1777571680 | 31.11° C | 48% | 1007 hPa | - | - | - | - |
| 1777571076 | 31.67° C | 48% | 1007.2 hPa | - | - | - | - |
| 1777570113 | 31.67° C | 46% | 1007.3 hPa | - | - | - | - |
| 1777569513 | 31.11° C | 44% | 1007.2 hPa | - | - | - | - |
| 1777568940 | 31.11° C | 44% | 1007.3 hPa | - | - | - | - |
| 1777568314 | 31.11° C | 48% | 1007.3 hPa | - | - | - | - |
| 1777567712 | 31.11° C | 48% | 1007.4 hPa | - | - | - | - |
| 1777567112 | 31.11° C | 48% | 1007.5 hPa | - | - | - | - |
| 1777566511 | 31.11° C | 48% | 1007.5 hPa | - | - | - | - |
| 1777565911 | 31.11° C | 48% | 1007.5 hPa | - | - | - | - |
| 1777565311 | 31.11° C | 47% | 1007.4 hPa | - | - | - | - |
| 1777564710 | 31.11° C | 46% | 1007.3 hPa | - | - | - | - |
| 1777564110 | 31.11° C | 45% | 1007.4 hPa | - | - | - | - |
| 1777563510 | 31.11° C | 47% | 1007.5 hPa | - | - | - | - |
| 1777562909 | 31.11° C | 49% | 1007.6 hPa | - | - | - | - |
| 1777562309 | 31.11° C | 50% | 1007.7 hPa | - | - | - | - |
| 1777561108 | 31.11° C | 52% | 1007.9 hPa | - | - | - | - |
| 1777560579 | 31.11° C | 54% | 1008 hPa | - | - | - | - |
| 1777559908 | 31.11° C | 56% | 1007.9 hPa | - | - | - | - |
| 1777559307 | 30.56° C | 57% | 1007.9 hPa | - | - | - | - |
| 1777558707 | 30.56° C | 55% | 1007.9 hPa | - | - | - | - |
| 1777558107 | 30.56° C | 57% | 1007.9 hPa | - | - | - | - |
| 1777557506 | 30.56° C | 57% | 1008 hPa | - | - | - | - |
| 1777556906 | 30.56° C | 57% | 1008.1 hPa | - | - | - | - |
* Rain since midnight (hover to see other rain measurements)
** Current wind speed in m/s (hover to see current wind gust speed)